Simultaneous Nadir Overpasses (SNOs) Predictions

Prediction of SNOs between AQUA and METOP-C Satellite Orbit:

Table of predicted SNOs for the next 14.0 days since TLE Epoch: 3/15/2019
Index Date (AQUA) Time (AQUA) Lat,Lon (AQUA) SZA (AQUA ) Date (METOP-C) Time (METOP-C) Lat,Lon (METOP-C) SZA (METOP-C ) Distance(km) Time Diff (sec)
1 03/17/2019 08:24:45 -73.77,-131.75 104.77 03/17/2019 08:23:42 -73.77,-131.75 104.76 0.76 63
2 03/17/2019 09:14:13 73.83, 35.76 75.29 03/17/2019 09:14:21 73.83, 35.75 75.29 0.31 8
3 03/17/2019 10:03:45 -74.13,-157.27 104.41 03/17/2019 10:04:56 -74.14,-156.17 104.45 33.46 71
4 03/20/2019 03:59:02 -73.78, -65.32 105.88 03/20/2019 03:58:06 -73.78, -65.30 105.87 0.91 56
5 03/20/2019 04:48:30 73.84, 102.18 74.17 03/20/2019 04:48:45 73.85, 102.20 74.19 1.59 15
6 03/20/2019 05:38:08 -74.44, -91.57 105.19 03/20/2019 05:39:15 -74.40, -89.10 105.33 73.91 67
7 03/22/2019 23:33:18 -73.79, 1.08 106.99 03/22/2019 23:32:29 -73.80, 1.14 106.97 2.14 49
8 03/23/2019 00:22:46 73.85, 168.58 73.07 03/23/2019 00:23:08 73.87, 168.64 73.08 2.75 22
9 03/25/2019 19:07:35 -73.81, 67.47 108.08 03/25/2019 19:06:53 -73.81, 67.58 108.07 3.62 42
10 03/25/2019 19:57:03 73.87,-125.03 71.97 03/25/2019 19:57:33 73.84,-125.03 71.94 3.75 30
11 03/28/2019 14:41:51 -73.78, 133.95 109.22 03/28/2019 14:41:18 -73.78, 133.91 109.21 1.42 33
12 03/28/2019 15:31:19 73.84, -58.54 70.84 03/28/2019 15:31:57 73.85, -58.59 70.84 1.74 38




NCC Satellite Simultaneous Nadir Overpasses (SNOs) Prediction Service
